Location: Arbon
(43.0005°N, 0.7472°E)
Time: 10:46:40
(UTC+00:00)

Vanguard 2 Rocket - Pass Details

Date: 05 December 2020
Orbit: 554 x 3325 km, 32.9° (Epoch: 21 January)

Event Time Altitude Azimuth Distance (km) Brightness Sun altitude
Rises 06:52:44 0° 245° (WSW) 6,530 10.9 -4.1°
Reaches altitude 10° 06:56:46 10° 241° (WSW) 5,770 10.7 -3.4°
Maximum altitude 07:15:19 59° 169° (SSE) 3,665 10.3 -0.5°
Drops below altitude 10° 07:33:30 10° 96° (E) 5,681 12.2 2.3°
Sets 07:37:25 0° 93° (E) 6,430 12.4 2.9°
